EET,Max TemperatureF,Mean TemperatureF,Min TemperatureF,Max Dew PointF,MeanDew PointF,Min DewpointF,Max Humidity, Mean Humidity, Min Humidity, Max Sea Level PressureIn, Mean Sea Level PressureIn, Min Sea Level PressureIn, Max VisibilityMiles, Mean VisibilityMiles, Min VisibilityMiles, Max Wind SpeedMPH, Mean Wind SpeedMPH, Max Gust SpeedMPH,PrecipitationIn, CloudCover, Events, WindDirDegrees
2012-11-1,77,68,59,68,62,54,94,78,61,30.04,29.78,29.71,6,6,6,21,5,30,0.00,6,,157
2012-11-2,78,68,57,66,57,50,94,69,39,29.95,29.85,29.77,6,6,6,13,2,,0.00,1,,1
2012-11-3,78,64,51,55,51,43,94,63,28,30.06,30.00,29.95,,,,12,4,,0.00,,,343
2012-11-4,77,64,51,55,52,48,94,65,39,30.09,30.05,30.01,6,6,6,10,3,,0.00,4,,3
2012-11-5,75,63,51,61,55,48,94,73,50,30.06,30.03,29.98,6,6,6,7,3,,0.00,6,,331
2012-11-6,80,70,59,64,61,57,94,75,54,30.04,29.99,29.95,6,6,5,10,1,21,0.00,3,,9
2012-11-7,77,68,59,63,59,57,94,73,53,30.09,30.04,29.98,6,6,5,7,4,,0.00,5,,318
2012-11-8,71,62,53,52,45,41,82,54,35,30.09,30.04,30.01,6,6,6,9,3,,0.00,1,,342
2012-11-9,71,58,44,48,40,32,77,52,23,30.06,30.01,29.98,6,6,6,14,5,,0.00,1,,347
2012-11-10,69,58,48,54,48,43,87,64,43,30.15,30.06,29.98,6,6,6,8,3,,0.00,1,,245
2012-11-11,71,61,51,50,43,39,68,48,33,30.24,30.19,30.15,6,6,6,10,7,,0.00,1,,346
2012-11-12,69,58,46,52,45,41,87,63,38,30.24,30.21,30.18,6,6,6,6,2,,0.00,2,,334
2012-11-13,69,58,46,52,48,43,94,70,40,30.21,30.15,30.09,6,6,6,7,4,,0.00,1,,303
2012-11-14,71,58,46,55,50,43,93,69,46,30.15,30.11,30.06,6,6,6,6,3,,0.00,1,,306
2012-11-15,71,60,50,48,44,43,76,56,38,30.12,30.07,30.01,6,6,6,8,5,,0.00,2,,324
2012-11-16,73,64,55,52,47,43,77,55,35,30.04,30.01,29.98,6,6,6,6,2,,0.00,5,,355
2012-11-17,75,65,55,50,47,46,77,51,36,29.98,29.94,29.92,6,6,6,12,6,,0.00,1,,360
2012-11-18,71,60,50,55,50,46,87,66,46,30.01,29.99,29.98,6,6,6,8,2,,0.00,2,,339
2012-11-19,71,63,55,59,53,48,94,75,46,29.98,29.95,29.89,6,5,2,8,2,,0.00,6,Rain,352
2012-11-20,62,60,57,59,57,54,100,93,82,30.01,29.94,29.92,6,4,1,7,3,,0.00,7,Rain-Thunderstorm,353
2012-11-21,68,59,50,57,55,48,100,85,64,30.01,29.98,29.95,6,6,4,6,1,,0.00,4,Rain,313
2012-11-22,73,63,53,52,48,43,94,55,38,30.12,30.05,30.01,6,6,6,9,5,,0.00,2,,353
2012-11-23,69,58,48,64,45,41,88,62,35,30.18,30.14,30.12,6,6,6,9,5,,0.00,2,,314
2012-11-24,68,58,48,54,50,46,94,68,49,30.15,30.13,30.09,6,6,6,6,3,,0.00,2,,257
2012-11-25,69,58,48,55,48,43,94,70,38,30.18,30.14,30.09,6,6,6,7,3,,0.00,2,,303
2012-11-26,69,58,46,55,51,45,94,75,49,30.18,30.13,30.09,6,6,5,7,1,,0.00,3,,230
2012-11-27,68,59,50,57,53,48,94,78,60,30.12,30.07,30.04,6,6,1,7,1,,0.00,4,Rain,218
2012-11-28,68,62,55,61,57,54,94,81,68,30.04,29.99,29.95,6,5,2,15,5,,0.00,5,Rain,203
2012-11-29,69,66,60,63,58,52,94,75,56,29.92,29.78,29.71,6,5,1,22,13,36,0.00,5,Rain-Thunderstorm,195
2012-11-30,69,61,53,59,53,50,94,75,49,29.86,29.80,29.77,6,6,5,12,2,,0.00,5,Rain,203